Regional Weather Roundup
Issued by NWS Little Rock, AR

Home | Current Version | Previous Version | Text Only | Print | Product List | Glossary Off
Versions: 1 2 3 4 5 6 7 8 9 10 11 12 13 14 15 16 17 18 19 20 21 22 23 24 25 26 27 28 29 30 31 32 33 34 35 36 37 38 39 40 41 42 43 44 45 46 47 48 49 50

000
ASUS44 KLZK 050605
RWRLZK

WEATHER ROUNDUP FOR ARKANSAS
NATIONAL WEATHER SERVICE LITTLE ROCK AR
100 AM CDT TUE MAY 05 2015

NOTE: "FAIR" INDICATES FEW OR NO CLOUDS BELOW 12,000 FEET WITH NO
SIGNIFICANT WEATHER AND/OR OBSTRUCTIONS TO VISIBILITY.

ARZ001-003-010-029-050700-
NORTHWEST ARKANSAS

CITY           SKY/WX    TMP DP  RH WIND       PRES   REMARKS
FAYETTEVILLE   CLEAR     56  56 100 CALM      30.15R
6HR MIN TEMP:  55; 6HR MAX TEMP:  75;

FORT SMITH     CLEAR     65  56  72 CALM      30.11R
6HR MIN TEMP:  64; 6HR MAX TEMP:  79;

HARRISON       CLEAR     62  54  74 CALM      30.18R
6HR MIN TEMP:  59; 6HR MAX TEMP:  76;

BENTONVILLE    PTCLDY   N/A N/A N/A SE3       30.16R
ROGERS         CLEAR     62  55  77 E6        30.16S
6HR MIN TEMP:  60; 6HR MAX TEMP:  76;

SILOAM SPGS    CLEAR     61  50  67 CALM      30.15S
6HR MIN TEMP:  61; 6HR MAX TEMP:  75;

HIGHFILL       CLEAR     60  53  77 CALM      30.14S
6HR MIN TEMP:  60; 6HR MAX TEMP:  77;

$$

ARZ004-005-016-050700-
NORTH CENTRAL ARKANSAS

CITY           SKY/WX    TMP DP  RH WIND       PRES   REMARKS
BATESVILLE     CLEAR     61  54  77 CALM      30.17R
6HR MIN TEMP:  61; 6HR MAX TEMP:  79;

FLIPPIN        CLEAR     63  55  77 CALM      30.15S
6HR MIN TEMP:  63; 6HR MAX TEMP:  79;

MTN HOME       CLEAR     64  56  75 CALM      30.16R
6HR MIN TEMP:  63; 6HR MAX TEMP:  77;

$$

ARZ040-041-050700-
WEST CENTRAL ARKANSAS

CITY           SKY/WX    TMP DP  RH WIND       PRES   REMARKS
MENA           PTCLDY    61  57  88 CALM      30.14R
MOUNT IDA      PTCLDY    65  56  72 CALM      30.12R
6HR MIN TEMP:  65; 6HR MAX TEMP:  77;

$$

ARZ009-017-025-026-028-050700-
NORTHEAST ARKANSAS

CITY           SKY/WX    TMP DP  RH WIND       PRES   REMARKS
CORNING          N/A     63  52  67 SE6       30.17S
JONESBORO      CLEAR     58  53  84 CALM      30.17R
6HR MIN TEMP:  57; 6HR MAX TEMP:  79;

NEWPORT        CLEAR     65  53  65 E7        30.18R
6HR MIN TEMP:  65; 6HR MAX TEMP:  81;

WALNUT RIDGE   CLEAR     63  48  59 S6        30.17R
6HR MIN TEMP:  63; 6HR MAX TEMP:  79;

BLYTHEVILLE    CLEAR     68  54  60 S7        30.18R
6HR MIN TEMP:  66; 6HR MAX TEMP:  80;

$$

ARZ022-023-033-042-044-050700-
CENTRAL ARKANSAS

CITY           SKY/WX    TMP DP  RH WIND       PRES   REMARKS
LITTLE ROCK    PTCLDY    66  55  67 CALM      30.15R
6HR MIN TEMP:  66; 6HR MAX TEMP:  79;

N LITTLE ROCK    N/A     69  57  66 S3        30.15R
6HR MIN TEMP:  67; 6HR MAX TEMP:  78;

SEARCY         CLEAR     60  56  86 CALM      30.17R
6HR MIN TEMP:  60; 6HR MAX TEMP:  79;

HOT SPRINGS    PTCLDY    70  57  63 SE5       30.14R
6HR MIN TEMP:  64; 6HR MAX TEMP:  78;

RUSSELLVILLE   CLEAR     62  59  90 CALM      30.14R
6HR MIN TEMP:  61; 6HR MAX TEMP:  79;

CLINTON        FAIR      57  57 100 CALM      30.18R FOG
$$

ARZ036-050700-
EAST ARKANSAS

CITY           SKY/WX    TMP DP  RH WIND       PRES   REMARKS
WEST MEMPHIS   CLOUDY    66  60  81 S6        30.17R
6HR MIN TEMP:  64; 6HR MAX TEMP:  78;

$$

ARZ050-053-066-070-073-050700-
SOUTHWEST ARKANSAS

CITY           SKY/WX    TMP DP  RH WIND       PRES   REMARKS
ARKADELPHIA    MOCLDY    64  63  97 CALM      30.14R
6HR MIN TEMP:  63; 6HR MAX TEMP:  78;

CAMDEN         CLOUDY    68  59  73 CALM      30.13S
TEXARKANA      CLEAR     68  60  75 SE8       30.10S
6HR MIN TEMP:  68; 6HR MAX TEMP:  76;

EL DORADO      PTCLDY    67  61  81 SE5       30.14R
6HR MIN TEMP:  66; 6HR MAX TEMP:  79;

DE QUEEN       PTCLDY    61  59  93 NE3       30.09R
6HR MIN TEMP:  61; 6HR MAX TEMP:  78;

$$

ARZ056-057-069-050700-
SOUTHEAST ARKANSAS

CITY           SKY/WX    TMP DP  RH WIND       PRES   REMARKS
PINE BLUFF     MOCLDY    65  59  81 CALM      30.15R
6HR MIN TEMP:  65; 6HR MAX TEMP:  79;

STUTTGART      PTCLDY    68  55  64 SE5       30.16R
6HR MIN TEMP:  68; 6HR MAX TEMP:  81;

MONTICELLO     PTCLDY    68  60  75 CALM      30.15R
6HR MIN TEMP:  68; 6HR MAX TEMP:  81;


$$





USA.gov is the U.S. government's official web portal to all federal, state and local government web resources and services.